Location: Columbus
(35.2256°N, 82.1549°W)
Time: 00:44:42
(UTC-05:00)

Envisat - Pass Details

Date: 30 November 2021
Orbit: 764 x 766 km, 98.2° (Epoch: 25 January)

Event Time Altitude Azimuth Distance (km) Brightness Sun altitude
Rises 17:35:04 0° 196° (SSW) 3,214 6.9 -4.3°
Reaches altitude 10° 17:37:44 10° 210° (SSW) 2,293 6.4 -4.8°
Maximum altitude 17:41:51 25° 265° (W) 1,506 5.6 -5.5°
Drops below altitude 10° 17:46:00 10° 320° (NW) 2,306 5.7 -6.3°
Sets 17:48:43 0° 333° (NNW) 3,236 6.3 -6.8°
